Погода в Ущицах

Россия / Псковская область     56°16′37″N   30°47′24″E
темп.,
°C
ветер,
м/с
пор.,
м/с
влажн.,
%
обл.,
%
осадки,
мм/ч
давл.,
гПа
погр.,
м
16 апреля, пт
пт1600:00+6св4118798 1.2 1019601
03:00+5св51190100 1.2 1019450
06:00+5св41290100 0.0 1018555
09:00+7св51285100 0.0 1019662
12:00+8св4985100 1.0 1019578
15:00+11всв5976100 1.0 10201048
18:00+11всв51077100 0.0 1020681
21:00+11всв51277100 0.0 1020618
17 апреля, сб
сб1700:00+10св6138091 0.0 1020695
03:00+9св51184100 0.1 1020652
06:00+8всв41187100 0.0 1021622
09:00+9всв4984100 0.1 1022708
12:00+11в4571100 0.0 1023971
15:00+13св4669100 0.0 10221192
18:00+13св4967100 0.0 10221133
21:00+10св4107645 0.0 1022352
18 апреля, вс
вс1800:00+8св4107992 0.0 1022399
03:00+6св4107562 0.0 1022404
06:00+5св3107774 0.0 1022374
09:00+8всв476698 0.0 1022559
12:00+10всв476098 0.0 10221013
15:00+11вюв4864100 0.0 10221143
18:00+10в386380 0.0 10231299
21:00+7вюв41281100 0.0 1024626
19 апреля, пн
пн1900:00+6всв4107892 0.0 1024649
03:00+6всв4118487 0.0 1024714
06:00+6всв41183100 0.1 1023796
09:00+6всв51185100 0.1 1023858
12:00+8всв61073100 0.0 10221190
15:00+7всв61084100 0.1 10221000
18:00+7всв61281100 0.5 1021895
21:00+7в6128190 0.5 1020890
20 апреля, вт
вт2000:00+6в51281100 0.0 1019874
03:00+6в51284100 0.0 1017700
06:00+6всв51189100 0.9 10151062
09:00+5всв61289100 2.3 10121052
12:00+5всв61286100 1.4 10101019
15:00+4всв71695100 4.1 1006912
18:00+4всв61797100 3.4 10031299
21:00+4св71496100 2.6 1005923